[[{"header":{"parameterUnit":"m.s-1","parameterCategory":2,"la1":30.2991,"la2":30.254,"lo1":-89.0895,"lo2":-89.0444,"dy":0.0017,"dx":0.0017,"nx":28,"ny":28,"refTime":"2024-02-16T09:00:00:Z","depth":"0","parameterNumber":2,"parameterNumberName":"U-component_of_CURRENTS"},"data":[0,0,0,0,0,0,0,0,0,0,0,0,0,0,0,0,0,0,0,0,0,0,0,0,0,0,0,0,0,0,0,0,0,0,0,0,0,0,0,0,0,0,0,0,0,0,0,0,0,0,0,0,0,0,0,0,0,0,0.2423,0.2424,0,0.2435,0.2435,0.2435,0.2422,0.2422,0.2422,0.2422,0.2399,0.2398,0.2398,0,0,0,0,0,0,0,0,0,0,0,0,0,0.2393,0.2394,0.2423,0.2424,0.2424,0.2435,0.2435,0.2435,0.2422,0.2422,0.2422,0.2421,0.2399,0.2398,0.2398,0,0,0,0,0,0,0,0,0,0,0,0,0,0.2404,0.2394,0.2423,0.2421,0.2421,0.2435,0.2435,0.2435,0.2422,0.2422,0.2422,0.2421,0.2399,0.2398,0.2398,0.2403,0,0,0.2396,0.2396,0,0,0,0,0,0,0,0,0.2403,0.2404,0.2421,0.2421,0.2421,0.2429,0.2416,0.2423,0.2423,0.2419,0.2422,0.2421,0.2407,0.2406,0.2406,0.2402,0.2401,0.2396,0.2396,0.2396,0.2395,0,0,0,0,0,0,0,0.2402,0.2404,0.2426,0.2421,0.2422,0.242,0.2421,0.2417,0.2413,0.242,0.2419,0.2424,0.2407,0.2407,0.2406,0.24,0.2396,0.2396,0.2395,0.2395,0.2424,0.2425,0,0,0,0,0,0,0.2406,0.2403,0.2425,0.2426,0.2413,0.2421,0.2422,0.2425,0.2414,0.2413,0.2425,0.2424,0.2408,0.2406,0.2405,0.2434,0.2396,0.2395,0.2395,0.2423,0.2424,0.2425,0,0,0,0,0,0,0.2405,0.2408,0.2425,0.2417,0.2419,0.2423,0.2426,0.2425,0.243,0.2419,0.2416,0.243,0.2408,0.2406,0.241,0.2432,0.2395,0.2394,0.2421,0.2423,0.2424,0.2476,0,0,0,0,0,0,0.2404,0.2407,0.2409,0.2417,0.242,0.2442,0.2426,0.2426,0.2434,0.2433,0.2422,0.242,0.2407,0.2411,0.2409,0.243,0.2394,0.242,0.2422,0.2424,0.2473,0.2479,0.2485,0,0,0,0,0,0.2403,0.2412,0.2409,0.2412,0.2423,0.2443,0.2444,0.2443,0.2435,0.2444,0.2436,0.242,0.2423,0.2411,0.2409,0.2431,0.2419,0.2421,0.2424,0.2471,0.2478,0.2485,0,0,0,0,0,0,0.2398,0.2412,0.2409,0.2421,0.2434,0.2442,0.245,0.2449,0.245,0.2446,0.243,0.2428,0.2442,0.2429,0.2417,0.2446,0.242,0.2422,0.2456,0.2463,0.2469,0.2476,0.2394,0,0,0,0,0,0.2399,0.241,0.2422,0.2432,0.244,0.2445,0.2452,0.2454,0.2457,0.2457,0.2449,0.2444,0.2451,0.245,0.245,0.2462,0.2469,0.2476,0.2482,0.2487,0.2492,0.2526,0.2535,0.2433,0.2433,0.2433,0,0,0.2399,0.241,0.2414,0.2433,0.2441,0.2457,0.2448,0.2465,0.2478,0.2454,0.2464,0.2463,0.2459,0.2476,0.2481,0.2467,0.2522,0.249,0.2494,0.2497,0.2529,0.2539,0.2548,0.2435,0.2434,0.2434,0,0,0.2408,0.2416,0.2427,0.2443,0.2463,0.247,0.2478,0.2489,0.2493,0.2503,0.2497,0.2512,0.2506,0.2518,0.2521,0.2559,0.2553,0.2558,0.2591,0.2624,0.2633,0.264,0.2672,0.2682,0.2559,0.256,0.256,0,0.2406,0.2421,0.2434,0.2453,0.2468,0.2478,0.2495,0.2507,0.2516,0.2529,0.2511,0.2536,0.2529,0.2568,0.258,0.2573,0.2588,0.2564,0.2632,0.264,0.2647,0.2677,0.2687,0.2562,0.2562,0.2562,0.2561,0,0.2422,0.2438,0.245,0.2475,0.2494,0.2515,0.2535,0.2555,0.2557,0.2564,0.2597,0.2596,0.2613,0.2617,0.2606,0.2661,0.2655,0.2637,0.2615,0.266,0.2689,0.2699,0.2566,0.2565,0.2564,0.2564,0,0,0.2405,0.245,0.2454,0.247,0.2509,0.2524,0.2562,0.2596,0.2622,0.2632,0.2665,0.2683,0.2687,0.2692,0.2692,0.2716,0.2779,0.2698,0.2699,0.2731,0.2856,0.2874,0.2887,0.2774,0.2776,0.2777,0.286,0,0.2412,0.2446,0.247,0.2505,0.2524,0.256,0.2591,0.2626,0.265,0.2684,0.2705,0.2729,0.2715,0.2728,0.2756,0.2776,0.2806,0.2758,0.2806,0.2807,0.2819,0.2899,0.287,0.2944,0.2869,0.2871,0.2872,0,0.2415,0.244,0.2474,0.2522,0.2533,0.2557,0.262,0.265,0.2711,0.2728,0.2772,0.2785,0.284,0.2806,0.2881,0.2852,0.2861,0.2868,0.2871,0.2876,0.2845,0.2884,0.2964,0.2957,0.2887,0.2886,0.2885,0,0.2393,0.2441,0.2467,0.2485,0.2542,0.2568,0.2601,0.2663,0.2702,0.2764,0.2801,0.2854,0.2895,0.2919,0.2951,0.292,0.3023,0.2979,0.3006,0.3006,0.2986,0.2982,0.3064,0.3026,0.3026,0.3026,0.3026,0,0.2388,0.2408,0.2459,0.2475,0.2508,0.2554,0.2602,0.2646,0.272,0.2777,0.2822,0.2889,0.2925,0.2989,0.2989,0.3052,0.3063,0.3037,0.304,0.3004,0.3001,0.2994,0.2967,0.3029,0.3028,0.3028,0.3027,0,0.2357,0.2392,0.2424,0.2482,0.2498,0.2523,0.26,0.264,0.2716,0.2799,0.2826,0.2939,0.3034,0.3071,0.3127,0.3119,0.3102,0.3163,0.3122,0.3119,0.3123,0.3099,0.3035,0.2922,0.3211,0.3212,0.3213,0,0.2341,0.2357,0.2416,0.2435,0.246,0.2506,0.254,0.2621,0.2672,0.2837,0.2875,0.3011,0.3103,0.3215,0.3237,0.3271,0.3155,0.3235,0.3166,0.3151,0.3126,0.2977,0.2873,0.316,0.316,0.3161,0.3161,0,0.2313,0.2339,0.2368,0.2408,0.2442,0.2476,0.2534,0.2576,0.269,0.2781,0.2925,0.3025,0.3184,0.3239,0.3298,0.3302,0.3136,0.3243,0.3239,0.3118,0.2949,0.2832,0.3075,0.3164,0.3164,0.3164,0.3164,0.3163,0.2292,0.2303,0.2347,0.2376,0.2412,0.2438,0.2438,0.2529,0.2614,0.2736,0.2895,0.3038,0.3215,0.3322,0.3286,0.3293,0.318,0.3232,0.3213,0.3069,0.2933,0.3192,0.3275,0.3275,0.3275,0.3276,0.3276,0,0.2256,0.2278,0.231,0.2337,0.2344,0.2382,0.2421,0.2411,0.248,0.2675,0.28,0.3074,0.3185,0.3282,0.3383,0.3295,0.309,0.3222,0.3017,0.2915,0.3192,0.3167,0.3216,0.3216,0.3216,0.3216,0.3216,0.3216,0.2241,0.2252,0.2266,0.2259,0.2272,0.2238,0.2235,0.225,0.2345,0.2522,0.2707,0.2865,0.3215,0.3496,0.3492,0.3385,0.3083,0.3001,0.29,0.3161,0.316,0.3158,0.3131,0.3172,0.3172,0.252,0.2516,0.2513]},{"header":{"parameterUnit":"m.s-1","parameterCategory":2,"la1":30.2991,"la2":30.254,"lo1":-89.0895,"lo2":-89.0444,"dy":0.0017,"dx":0.0017,"nx":28,"ny":28,"refTime":"2024-02-16T09:00:00:Z","depth":"0","parameterNumber":3,"parameterNumberName":"V-component_of_CURRENTS"},"data":[0,0,0,0,0,0,0,0,0,0,0,0,0,0,0,0,0,0,0,0,0,0,0,0,0,0,0,0,0,0,0,0,0,0,0,0,0,0,0,0,0,0,0,0,0,0,0,0,0,0,0,0,0,0,0,0,0,0,-0.0228,-0.0228,0,-0.028,-0.028,-0.0281,-0.0317,-0.0317,-0.0317,-0.0317,-0.0368,-0.0369,-0.037,0,0,0,0,0,0,0,0,0,0,0,0,0,-0.0201,-0.0201,-0.0228,-0.0228,-0.0229,-0.028,-0.028,-0.0281,-0.0317,-0.0317,-0.0317,-0.0318,-0.0368,-0.0369,-0.0371,0,0,0,0,0,0,0,0,0,0,0,0,0,-0.0229,-0.0201,-0.0228,-0.0252,-0.0255,-0.0279,-0.028,-0.0281,-0.0317,-0.0317,-0.0317,-0.0318,-0.0367,-0.0369,-0.0371,-0.0375,0,0,-0.0376,-0.0377,0,0,0,0,0,0,0,0,-0.0227,-0.023,-0.0248,-0.0251,-0.0254,-0.0291,-0.0289,-0.0312,-0.0317,-0.0294,-0.0317,-0.0318,-0.0342,-0.0346,-0.0356,-0.0377,-0.038,-0.0376,-0.0377,-0.0378,-0.0378,0,0,0,0,0,0,0,-0.0225,-0.0228,-0.0249,-0.0249,-0.0252,-0.0275,-0.0279,-0.0294,-0.0316,-0.0296,-0.0299,-0.0303,-0.0343,-0.0354,-0.0357,-0.038,-0.0376,-0.0378,-0.0379,-0.0379,-0.0405,-0.0405,0,0,0,0,0,0,-0.0215,-0.0226,-0.0247,-0.025,-0.024,-0.0275,-0.0279,-0.028,-0.0316,-0.0322,-0.0303,-0.0305,-0.0351,-0.0355,-0.0359,-0.035,-0.0378,-0.038,-0.0381,-0.0405,-0.0405,-0.0404,0,0,0,0,0,0,-0.0214,-0.0216,-0.0245,-0.0239,-0.0244,-0.0275,-0.0275,-0.028,-0.0287,-0.0321,-0.0327,-0.0303,-0.0351,-0.0357,-0.0363,-0.0353,-0.038,-0.0382,-0.0406,-0.0405,-0.0405,-0.0342,0,0,0,0,0,0,-0.0213,-0.0215,-0.0212,-0.0238,-0.0244,-0.0249,-0.0275,-0.0281,-0.029,-0.0293,-0.0323,-0.0329,-0.0352,-0.036,-0.0365,-0.0356,-0.0383,-0.0406,-0.0405,-0.0405,-0.0345,-0.034,-0.0335,0,0,0,0,0,-0.0212,-0.0199,-0.0211,-0.0214,-0.0238,-0.0248,-0.0253,-0.0277,-0.0289,-0.0286,-0.0306,-0.0328,-0.036,-0.0361,-0.0367,-0.0358,-0.0406,-0.0406,-0.0405,-0.0347,-0.0341,-0.0335,0,0,0,0,0,0,-0.0184,-0.0203,-0.0216,-0.021,-0.0225,-0.0254,-0.0253,-0.027,-0.0285,-0.0287,-0.032,-0.0326,-0.0331,-0.0352,-0.0353,-0.0364,-0.0388,-0.0388,-0.0342,-0.0337,-0.0332,-0.0314,-0.0385,0,0,0,0,0,-0.0177,-0.0172,-0.0196,-0.0191,-0.0196,-0.0224,-0.0232,-0.0247,-0.0264,-0.0272,-0.0294,-0.0317,-0.0333,-0.0339,-0.0359,-0.036,-0.0386,-0.036,-0.0355,-0.0351,-0.034,-0.0371,-0.0368,-0.0402,-0.0402,-0.0402,0,0,-0.0165,-0.0174,-0.0172,-0.0185,-0.0199,-0.0196,-0.0229,-0.0233,-0.0228,-0.0274,-0.0272,-0.0301,-0.033,-0.0334,-0.0338,-0.0348,-0.0355,-0.035,-0.0346,-0.0337,-0.037,-0.0366,-0.0364,-0.0401,-0.0401,-0.0401,0,0,-0.0135,-0.0146,-0.0134,-0.0141,-0.0157,-0.0171,-0.0168,-0.0193,-0.0201,-0.0207,-0.0238,-0.0255,-0.0282,-0.0298,-0.031,-0.029,-0.033,-0.0301,-0.026,-0.0289,-0.0287,-0.0285,-0.0313,-0.0314,-0.0297,-0.0297,-0.0297,0,-0.0121,-0.0108,-0.0131,-0.0121,-0.0119,-0.0154,-0.0137,-0.0149,-0.0172,-0.0174,-0.0196,-0.0236,-0.0263,-0.0264,-0.026,-0.0278,-0.0303,-0.0277,-0.0282,-0.0281,-0.028,-0.0309,-0.0311,-0.0294,-0.0294,-0.0294,-0.0295,0,-0.0084,-0.0074,-0.0065,-0.0061,-0.0063,-0.0053,-0.0071,-0.0071,-0.009,-0.011,-0.0121,-0.0164,-0.0186,-0.0201,-0.0224,-0.0227,-0.025,-0.0274,-0.0294,-0.0272,-0.0305,-0.0308,-0.0289,-0.029,-0.0291,-0.0292,0,0,-0.0046,-0.004,-0.0035,-0.0021,-0.0028,-0.0021,-0.0008,-0.0006,0.0007,-0.0031,-0.0023,-0.0062,-0.0096,-0.0112,-0.0149,-0.0176,-0.0195,-0.0216,-0.0219,-0.0238,-0.0261,-0.0281,-0.0287,-0.0222,-0.0222,-0.0222,-0.0287,0,-0.0007,0.003,0.0021,0.0061,0.008,0.0061,0.0083,0.0077,0.0057,0.0055,0.0006,-0.0008,-0.0058,-0.0071,-0.0104,-0.017,-0.02,-0.0175,-0.0284,-0.0287,-0.0303,-0.029,-0.0305,-0.0363,-0.029,-0.029,-0.0291,0,0.0037,0.0057,0.0102,0.0132,0.0139,0.0159,0.0185,0.0194,0.0178,0.0159,0.0127,0.0082,0.0045,-0.0008,-0.0105,-0.0088,-0.0165,-0.0224,-0.0228,-0.0269,-0.0312,-0.0374,-0.0372,-0.0576,-0.0296,-0.0296,-0.0295,0,0.0086,0.0118,0.016,0.0169,0.0193,0.0217,0.023,0.0228,0.0248,0.0218,0.0221,0.0157,0.0133,0.0032,-0.0092,-0.0099,-0.0209,-0.0236,-0.0326,-0.0329,-0.0372,-0.0378,-0.0574,-0.0307,-0.0307,-0.0306,-0.0306,0,0.0136,0.017,0.0189,0.0215,0.0275,0.0269,0.0324,0.032,0.0328,0.0363,0.0278,0.029,0.0141,0.006,-0.0065,-0.0201,-0.0191,-0.0313,-0.0344,-0.0352,-0.0355,-0.0559,-0.0676,-0.0309,-0.0308,-0.0308,-0.0307,0,0.0183,0.0194,0.0246,0.0284,0.0301,0.0342,0.039,0.0429,0.0418,0.046,0.0456,0.0391,0.0288,0.0126,-0.0038,-0.0155,-0.042,-0.035,-0.0348,-0.0377,-0.0637,-0.0748,-0.0976,-0.108,-0.0448,-0.0449,-0.0449,0,0.0209,0.0242,0.03,0.0338,0.0358,0.0414,0.0463,0.0475,0.0519,0.0533,0.0567,0.048,0.0446,0.0187,-0.0052,-0.0278,-0.0466,-0.0441,-0.0455,-0.0652,-0.08,-0.0886,-0.0963,-0.0493,-0.0494,-0.0495,-0.0496,0,0.0264,0.0285,0.0328,0.0405,0.0463,0.0529,0.0596,0.0647,0.0675,0.0717,0.0757,0.0729,0.0481,0.0252,-0.0076,-0.0244,-0.0609,-0.0463,-0.0676,-0.0856,-0.0955,-0.1069,-0.0454,-0.0503,-0.0502,-0.0502,-0.0501,-0.0501,0.0309,0.0348,0.0407,0.0478,0.0548,0.0636,0.0701,0.0777,0.0865,0.0939,0.0907,0.0899,0.0532,0.0092,-0.0177,-0.0682,-0.0679,-0.082,-0.0938,-0.1006,-0.1115,-0.051,-0.0589,-0.0589,-0.0588,-0.0588,-0.0588,0,0.0363,0.0405,0.0476,0.0562,0.064,0.0667,0.0788,0.0857,0.0972,0.1049,0.1085,0.0881,0.0437,-0.0034,-0.07,-0.1076,-0.1228,-0.1299,-0.1443,-0.1497,-0.0965,-0.0976,-0.1132,-0.1132,-0.1132,-0.1132,-0.1131,-0.1131,0.0395,0.0466,0.0496,0.0622,0.0684,0.0787,0.0859,0.0967,0.1048,0.1122,0.1108,0.1053,0.0612,-0.0512,-0.1391,-0.1591,-0.1884,-0.1943,-0.2091,-0.175,-0.1715,-0.1681,-0.1719,-0.2028,-0.2029,-0.2573,-0.2579,-0.2583]}],[{"header":{"parameterUnit":"m.s-1","parameterCategory":2,"la1":30.2991,"la2":30.254,"lo1":-89.0895,"lo2":-89.0444,"dy":0.0017,"dx":0.0017,"nx":28,"ny":28,"refTime":"2024-02-16T09:00:00:Z","depth":"2","parameterNumber":2,"parameterNumberName":"U-component_of_CURRENTS"},"data":[0,0,0,0,0,0,0,0,0,0,0,0,0,0,0,0,0,0,0,0,0,0,0,0,0,0,0,0,0,0,0,0,0,0,0,0,0,0,0,0,0,0,0,0,0,0,0,0,0,0,0,0,0,0,0,0,0,0,0.2404,0.2405,0,0.2416,0.2416,0.2416,0.2405,0.2404,0.2404,0.2404,0.2383,0.2383,0.2382,0,0,0,0,0,0,0,0,0,0,0,0,0,0.2374,0.2375,0.2404,0.2405,0.2405,0.2416,0.2416,0.2416,0.2405,0.2404,0.2404,0.2404,0.2383,0.2383,0.2382,0,0,0,0,0,0,0,0,0,0,0,0,0,0.2385,0.2375,0.2404,0.2402,0.2403,0.2416,0.2416,0.2416,0.2405,0.2404,0.2404,0.2404,0.2383,0.2383,0.2382,0.2386,0,0,0.2381,0.2381,0,0,0,0,0,0,0,0,0.2384,0.2385,0.2402,0.2403,0.2403,0.241,0.2398,0.2405,0.2405,0.2401,0.2404,0.2403,0.2391,0.239,0.239,0.2385,0.2385,0.2381,0.2381,0.238,0.238,0,0,0,0,0,0,0,0.2383,0.2385,0.2407,0.2403,0.2403,0.2402,0.2403,0.2399,0.2396,0.2402,0.2401,0.2406,0.239,0.2391,0.2389,0.2384,0.2381,0.238,0.238,0.238,0.2409,0.241,0,0,0,0,0,0,0.2387,0.2384,0.2406,0.2407,0.2395,0.2403,0.2404,0.2406,0.2396,0.2396,0.2407,0.2406,0.2392,0.239,0.2389,0.2418,0.238,0.238,0.238,0.2408,0.2409,0.2411,0,0,0,0,0,0,0.2386,0.2389,0.2406,0.2398,0.24,0.2404,0.2407,0.2407,0.2412,0.2401,0.2399,0.2413,0.2391,0.2389,0.2394,0.2416,0.238,0.2379,0.2407,0.2409,0.241,0.2462,0,0,0,0,0,0,0.2385,0.2388,0.2391,0.2398,0.2401,0.2423,0.2408,0.2407,0.2416,0.2416,0.2406,0.2403,0.2391,0.2395,0.2394,0.2415,0.2379,0.2406,0.2408,0.241,0.2458,0.2465,0.247,0,0,0,0,0,0.2384,0.2393,0.2391,0.2394,0.2405,0.2424,0.2425,0.2425,0.2417,0.2426,0.2419,0.2404,0.2407,0.2396,0.2394,0.2415,0.2405,0.2407,0.2409,0.2456,0.2464,0.247,0,0,0,0,0,0,0.238,0.2393,0.2391,0.2402,0.2416,0.2423,0.2432,0.2431,0.2432,0.2429,0.2414,0.2411,0.2426,0.2414,0.2401,0.2431,0.2405,0.2407,0.2441,0.2448,0.2454,0.2461,0.2378,0,0,0,0,0,0.2381,0.2392,0.2404,0.2414,0.2422,0.2427,0.2434,0.2436,0.244,0.244,0.2432,0.2428,0.2435,0.2435,0.2435,0.2447,0.2454,0.2462,0.2468,0.2472,0.2478,0.251,0.252,0.2419,0.2419,0.2419,0,0,0.2382,0.2392,0.2397,0.2415,0.2423,0.2439,0.243,0.2448,0.246,0.2437,0.2448,0.2448,0.2443,0.2461,0.2466,0.2452,0.2507,0.2476,0.248,0.2483,0.2514,0.2524,0.2532,0.242,0.242,0.242,0,0,0.2391,0.2399,0.241,0.2426,0.2446,0.2453,0.2461,0.2472,0.2476,0.2487,0.2481,0.2496,0.2491,0.2503,0.2506,0.2544,0.2538,0.2543,0.2576,0.2608,0.2617,0.2624,0.2655,0.2665,0.2544,0.2545,0.2545,0,0.2389,0.2405,0.2417,0.2436,0.2451,0.2461,0.2478,0.2489,0.25,0.2512,0.2495,0.2521,0.2515,0.2553,0.2565,0.2558,0.2573,0.255,0.2616,0.2624,0.2631,0.266,0.267,0.2547,0.2547,0.2547,0.2547,0,0.2405,0.2422,0.2434,0.2459,0.2477,0.2498,0.2517,0.2538,0.2541,0.2548,0.2581,0.258,0.2598,0.2602,0.2592,0.2645,0.2639,0.2622,0.2599,0.2644,0.2672,0.2682,0.2551,0.255,0.255,0.2549,0,0,0.239,0.2434,0.2438,0.2454,0.2492,0.2508,0.2545,0.2579,0.2605,0.2616,0.2648,0.2667,0.2671,0.2676,0.2677,0.27,0.2762,0.2682,0.2683,0.2714,0.2837,0.2852,0.2863,0.2756,0.2758,0.276,0.284,0,0.2397,0.2431,0.2454,0.2489,0.2508,0.2543,0.2574,0.2608,0.2633,0.2667,0.2687,0.2712,0.2699,0.2713,0.2739,0.2759,0.2788,0.2742,0.2787,0.2789,0.2797,0.2876,0.2593,0.2643,0.2849,0.2851,0.2852,0,0.24,0.2425,0.2458,0.2506,0.2517,0.2541,0.2603,0.2633,0.2694,0.2711,0.2755,0.2768,0.2823,0.2789,0.2862,0.2834,0.2843,0.2849,0.2852,0.2854,0.2822,0.2629,0.2653,0.2868,0.2867,0.2866,0.2865,0,0.2379,0.2426,0.2452,0.247,0.2526,0.2552,0.2585,0.2647,0.2685,0.2747,0.2784,0.2836,0.2877,0.2901,0.2931,0.2901,0.3001,0.2958,0.2981,0.2981,0.2745,0.2722,0.3004,0.3004,0.3004,0.3004,0.3004,0,0.2374,0.2394,0.2445,0.246,0.2494,0.2539,0.2588,0.2631,0.2705,0.276,0.2806,0.2871,0.2907,0.2969,0.2968,0.3028,0.304,0.3012,0.3014,0.2757,0.2736,0.2924,0.2914,0.3007,0.3006,0.3005,0.3005,0,0.2344,0.2379,0.2411,0.2468,0.2485,0.251,0.2586,0.2626,0.2701,0.2783,0.2809,0.292,0.3012,0.3048,0.3103,0.3094,0.3126,0.3133,0.284,0.2809,0.3071,0.3062,0.3174,0.3175,0.3176,0.3177,0.3178,0,0.2328,0.2345,0.2403,0.2422,0.2447,0.2494,0.2527,0.2608,0.2657,0.2819,0.2856,0.2989,0.3069,0.3177,0.3147,0.3165,0.3194,0.2935,0.2833,0.3103,0.3094,0.3083,0.3073,0.2528,0.2524,0.252,0.2517,0,0.2302,0.2328,0.2356,0.2396,0.243,0.2464,0.2521,0.2562,0.2674,0.2753,0.2891,0.298,0.309,0.2993,0.3027,0.2998,0.2911,0.2868,0.3213,0.2556,0.2509,0.2496,0.2504,0.2484,0.2488,0.249,0.2492,0.2493,0.2281,0.2292,0.2335,0.2364,0.24,0.2425,0.2423,0.2471,0.2539,0.2582,0.2783,0.278,0.2821,0.2733,0.2679,0.2623,0.2828,0.267,0.2674,0.2684,0.2622,0.2582,0.2559,0.2562,0.2566,0.2568,0.2571,0,0.223,0.2267,0.2299,0.2325,0.2311,0.237,0.2405,0.2352,0.2351,0.2408,0.2459,0.2295,0.2242,0.2281,0.2147,0.2202,0.2108,0.2119,0.1929,0.1966,0.1998,0.1893,0.1641,0.1638,0.1635,0.1632,0,0,0.2212,0.2214,0.2227,0.2208,0.2235,0.2192,0.2186,0.2115,0.2096,0.1999,0.1941,0.2054,0.2199,0.1846,0.1845,0.1713,0.1818,0.1656,0.2404,0.2216,0.2243,0.2329,0.2214,0,0,0,0,0]},{"header":{"parameterUnit":"m.s-1","parameterCategory":2,"la1":30.2991,"la2":30.254,"lo1":-89.0895,"lo2":-89.0444,"dy":0.0017,"dx":0.0017,"nx":28,"ny":28,"refTime":"2024-02-16T09:00:00:Z","depth":"2","parameterNumber":3,"parameterNumberName":"V-component_of_CURRENTS"},"data":[0,0,0,0,0,0,0,0,0,0,0,0,0,0,0,0,0,0,0,0,0,0,0,0,0,0,0,0,0,0,0,0,0,0,0,0,0,0,0,0,0,0,0,0,0,0,0,0,0,0,0,0,0,0,0,0,0,0,-0.0161,-0.0162,0,-0.0212,-0.0212,-0.0213,-0.0249,-0.0249,-0.025,-0.025,-0.03,-0.0301,-0.0302,0,0,0,0,0,0,0,0,0,0,0,0,0,-0.0135,-0.0135,-0.0161,-0.0162,-0.0162,-0.0212,-0.0212,-0.0213,-0.0249,-0.0249,-0.025,-0.025,-0.03,-0.0301,-0.0302,0,0,0,0,0,0,0,0,0,0,0,0,0,-0.0162,-0.0135,-0.0161,-0.0186,-0.0188,-0.0211,-0.0212,-0.0213,-0.0249,-0.0249,-0.025,-0.025,-0.0299,-0.0301,-0.0303,-0.0305,0,0,-0.0308,-0.0308,0,0,0,0,0,0,0,0,-0.0161,-0.0163,-0.0182,-0.0184,-0.0187,-0.0224,-0.0222,-0.0244,-0.0249,-0.0227,-0.025,-0.025,-0.0274,-0.0278,-0.0287,-0.0308,-0.031,-0.0308,-0.0309,-0.0309,-0.031,0,0,0,0,0,0,0,-0.0159,-0.0161,-0.0182,-0.0182,-0.0186,-0.0208,-0.0212,-0.0226,-0.0248,-0.0229,-0.0231,-0.0236,-0.0276,-0.0286,-0.0289,-0.0311,-0.0308,-0.0309,-0.031,-0.0311,-0.0335,-0.0335,0,0,0,0,0,0,-0.0149,-0.0159,-0.018,-0.0183,-0.0174,-0.0208,-0.0212,-0.0212,-0.0248,-0.0254,-0.0235,-0.0237,-0.0283,-0.0287,-0.0291,-0.0283,-0.0309,-0.0311,-0.0312,-0.0336,-0.0335,-0.0335,0,0,0,0,0,0,-0.0148,-0.015,-0.0178,-0.0172,-0.0177,-0.0207,-0.0207,-0.0213,-0.0221,-0.0253,-0.0259,-0.0237,-0.0283,-0.0288,-0.0295,-0.0285,-0.0312,-0.0313,-0.0336,-0.0336,-0.0335,-0.0275,0,0,0,0,0,0,-0.0147,-0.0149,-0.0146,-0.0171,-0.0177,-0.0182,-0.0207,-0.0214,-0.0223,-0.0226,-0.0256,-0.0262,-0.0284,-0.0292,-0.0297,-0.0288,-0.0315,-0.0337,-0.0336,-0.0335,-0.0278,-0.0273,-0.0269,0,0,0,0,0,-0.0146,-0.0134,-0.0145,-0.0148,-0.0172,-0.0181,-0.0186,-0.021,-0.0222,-0.0219,-0.024,-0.026,-0.0292,-0.0293,-0.0298,-0.029,-0.0337,-0.0336,-0.0335,-0.028,-0.0274,-0.0269,0,0,0,0,0,0,-0.012,-0.0137,-0.015,-0.0145,-0.0159,-0.0187,-0.0187,-0.0204,-0.0218,-0.0221,-0.0253,-0.0259,-0.0264,-0.0284,-0.0285,-0.0296,-0.0319,-0.0319,-0.0275,-0.027,-0.0265,-0.0248,-0.0316,0,0,0,0,0,-0.0112,-0.0108,-0.0131,-0.0126,-0.0131,-0.0159,-0.0166,-0.0181,-0.0198,-0.0206,-0.0228,-0.025,-0.0265,-0.0272,-0.0291,-0.0292,-0.0317,-0.0292,-0.0288,-0.0284,-0.0273,-0.0304,-0.0301,-0.0332,-0.0332,-0.0333,0,0,-0.0101,-0.011,-0.0108,-0.012,-0.0135,-0.0131,-0.0164,-0.0168,-0.0163,-0.0208,-0.0206,-0.0235,-0.0263,-0.0266,-0.0271,-0.0281,-0.0288,-0.0283,-0.0279,-0.0271,-0.0302,-0.0299,-0.0297,-0.0332,-0.0332,-0.0332,0,0,-0.0073,-0.0084,-0.0072,-0.0079,-0.0094,-0.0108,-0.0105,-0.013,-0.0138,-0.0143,-0.0174,-0.0191,-0.0217,-0.0233,-0.0245,-0.0225,-0.0264,-0.0236,-0.0196,-0.0225,-0.0223,-0.0221,-0.0249,-0.025,-0.0232,-0.0232,-0.0232,0,-0.006,-0.0046,-0.0069,-0.0059,-0.0057,-0.0092,-0.0075,-0.0087,-0.011,-0.0111,-0.0134,-0.0172,-0.0199,-0.0199,-0.0196,-0.0213,-0.0238,-0.0213,-0.0219,-0.0217,-0.0216,-0.0245,-0.0247,-0.0229,-0.0229,-0.023,-0.023,0,-0.0024,-0.0014,-0.0005,-0.0001,-0.0003,0.0007,-0.0011,-0.0011,-0.003,-0.0049,-0.0061,-0.0102,-0.0124,-0.014,-0.0162,-0.0165,-0.0187,-0.021,-0.023,-0.0209,-0.0242,-0.0245,-0.0225,-0.0226,-0.0227,-0.0227,0,0,0.0012,0.0019,0.0024,0.0038,0.0031,0.0038,0.0051,0.0053,0.0066,0.0028,0.0036,-0.0003,-0.0037,-0.0052,-0.0089,-0.0115,-0.0135,-0.0155,-0.0158,-0.0177,-0.0201,-0.0221,-0.0227,-0.0162,-0.0162,-0.0162,-0.0226,0,0.0049,0.0086,0.0078,0.0118,0.0137,0.0118,0.014,0.0135,0.0115,0.0113,0.0064,0.0051,0.0,-0.0012,-0.0045,-0.011,-0.014,-0.0116,-0.0222,-0.0225,-0.0242,-0.023,-0.0186,-0.024,-0.0229,-0.023,-0.023,0,0.0092,0.0112,0.0157,0.0188,0.0195,0.0215,0.024,0.025,0.0234,0.0215,0.0183,0.0139,0.0101,0.0049,-0.0047,-0.0031,-0.0106,-0.0165,-0.0169,-0.0209,-0.0251,-0.026,-0.0247,-0.0236,-0.0235,-0.0235,-0.0235,0,0.014,0.0172,0.0214,0.0223,0.0248,0.0272,0.0284,0.0283,0.0303,0.0274,0.0276,0.0213,0.0189,0.0089,-0.0035,-0.0041,-0.015,-0.0177,-0.0267,-0.027,-0.0262,-0.0264,-0.0247,-0.0247,-0.0247,-0.0247,-0.0247,0,0.0189,0.0223,0.0242,0.0268,0.0328,0.0322,0.0377,0.0374,0.0381,0.0416,0.0332,0.0344,0.0196,0.0116,-0.0008,-0.0143,-0.0133,-0.0254,-0.0285,-0.0241,-0.024,-0.0261,-0.0262,-0.0249,-0.0249,-0.0248,-0.0248,0,0.0234,0.0246,0.0298,0.0336,0.0353,0.0394,0.0443,0.0482,0.0471,0.0512,0.0509,0.0444,0.0341,0.018,0.0018,-0.0098,-0.0236,-0.0291,-0.0231,-0.0253,-0.0342,-0.0338,-0.0387,-0.0388,-0.0389,-0.039,-0.0391,0,0.026,0.0293,0.0351,0.0389,0.0409,0.0465,0.0515,0.0527,0.0571,0.0585,0.0619,0.0531,0.0497,0.024,0.0017,-0.0205,-0.0246,-0.0322,-0.0328,-0.0329,-0.0355,-0.035,-0.0346,-0.0297,-0.0297,-0.0297,-0.0297,0,0.0315,0.0335,0.0379,0.0455,0.0513,0.058,0.0646,0.0698,0.0726,0.0768,0.0807,0.0779,0.0543,0.0337,0.0017,-0.013,-0.0284,-0.0327,-0.0343,-0.0269,-0.025,-0.0273,-0.0271,-0.0296,-0.0296,-0.0296,-0.0296,-0.0296,0.0359,0.0398,0.0457,0.0528,0.0597,0.0686,0.0752,0.0837,0.0928,0.1003,0.0956,0.0926,0.067,0.0285,0.0011,-0.0278,-0.0268,-0.0363,-0.0361,-0.0359,-0.0338,-0.0322,-0.0377,-0.0378,-0.0378,-0.0379,-0.0379,0,0.0422,0.0454,0.0525,0.0612,0.0702,0.0716,0.0839,0.0926,0.1055,0.1105,0.1137,0.0915,0.0664,0.0356,-0.0058,-0.031,-0.0321,-0.0396,-0.0347,-0.0346,-0.0345,-0.0321,-0.0357,-0.0358,-0.0359,-0.036,0,0,0.0456,0.0533,0.0563,0.0697,0.0749,0.0858,0.0932,0.107,0.1145,0.1227,0.1206,0.1129,0.0757,0.0461,0.0117,-0.0123,-0.0179,-0.017,-0.0157,-0.0057,-0.0053,-0.0292,-0.025,0,0,0,0,0]}],[{"header":{"parameterUnit":"m.s-1","parameterCategory":2,"la1":30.2991,"la2":30.254,"lo1":-89.0895,"lo2":-89.0444,"dy":0.0017,"dx":0.0017,"nx":28,"ny":28,"refTime":"2024-02-16T09:00:00:Z","depth":"4","parameterNumber":2,"parameterNumberName":"U-component_of_CURRENTS"},"data":[0,0,0,0,0,0,0,0,0,0,0,0,0,0,0,0,0,0,0,0,0,0,0,0,0,0,0,0,0,0,0,0,0,0,0,0,0,0,0,0,0,0,0,0,0,0,0,0,0,0,0,0,0,0,0,0,0,0,0.1519,0.1519,0,0.1571,0.1571,0.1572,0.1617,0.1618,0.1618,0.1619,0.1681,0.1682,0.1683,0,0,0,0,0,0,0,0,0,0,0,0,0,0.1447,0.1448,0.1519,0.1519,0.152,0.1571,0.1571,0.1572,0.1617,0.1618,0.1619,0.1619,0.1681,0.1682,0.1684,0,0,0,0,0,0,0,0,0,0,0,0,0,0.1485,0.1448,0.1519,0.155,0.1553,0.157,0.1571,0.1572,0.1617,0.1618,0.1619,0.162,0.1681,0.1682,0.1684,0.1674,0,0,0.1689,0.1689,0,0,0,0,0,0,0,0,0.1483,0.1487,0.1545,0.1548,0.1552,0.159,0.1569,0.1607,0.1617,0.1591,0.1619,0.162,0.1652,0.1656,0.1661,0.1677,0.168,0.1689,0.169,0.169,0.1691,0,0,0,0,0,0,0,0.148,0.1485,0.1538,0.1545,0.155,0.1557,0.1564,0.1576,0.1614,0.1594,0.1597,0.1605,0.1654,0.166,0.1663,0.1681,0.1689,0.169,0.1691,0.1692,0.1789,0.179,0,0,0,0,0,0,0.1476,0.1483,0.1536,0.154,0.1521,0.1558,0.1565,0.1575,0.1614,0.1622,0.1604,0.1607,0.1656,0.1661,0.1666,0.1747,0.169,0.1692,0.1693,0.1787,0.1789,0.1791,0,0,0,0,0,0,0.1474,0.148,0.1534,0.1513,0.1521,0.1559,0.1569,0.1576,0.1616,0.1623,0.163,0.1642,0.1657,0.1663,0.171,0.1746,0.1693,0.1694,0.1785,0.1788,0.179,0.1852,0,0,0,0,0,0,0.1472,0.148,0.1501,0.1513,0.1522,0.1567,0.1569,0.1576,0.1618,0.1623,0.1657,0.1662,0.1659,0.1707,0.1711,0.1748,0.1695,0.1783,0.1786,0.1789,0.1848,0.1856,0.1863,0,0,0,0,0,0.1469,0.149,0.1502,0.1509,0.1545,0.1569,0.1575,0.1602,0.1619,0.1642,0.1669,0.1662,0.173,0.171,0.1714,0.1752,0.1782,0.1786,0.1789,0.1844,0.1854,0.1863,0,0,0,0,0,0,0.1471,0.1497,0.151,0.1539,0.1564,0.1577,0.1606,0.1622,0.166,0.1677,0.1681,0.1688,0.1744,0.1739,0.1717,0.1789,0.1755,0.176,0.1796,0.1806,0.1813,0.1817,0.1697,0,0,0,0,0,0.148,0.1507,0.1526,0.1555,0.157,0.1595,0.1615,0.1634,0.166,0.168,0.1703,0.1729,0.1755,0.1775,0.1794,0.1831,0.183,0.1858,0.1866,0.1873,0.188,0.1909,0.192,0.1803,0.1803,0.1803,0,0,0.149,0.1508,0.1525,0.1558,0.1582,0.1608,0.161,0.1651,0.1681,0.1679,0.174,0.1761,0.1773,0.1818,0.1842,0.1823,0.1908,0.1877,0.1883,0.1886,0.1914,0.1925,0.1935,0.1806,0.1805,0.1805,0,0,0.1509,0.154,0.1564,0.1588,0.1629,0.1643,0.1663,0.1697,0.1726,0.1774,0.1787,0.1831,0.1867,0.1886,0.1897,0.1958,0.195,0.197,0.2012,0.2041,0.205,0.2059,0.2078,0.2088,0.1971,0.1971,0.1972,0,0.1522,0.1552,0.1576,0.1604,0.163,0.1663,0.1693,0.1723,0.1771,0.1799,0.1805,0.1883,0.1897,0.1951,0.1977,0.1977,0.1989,0.1974,0.205,0.2059,0.2066,0.2084,0.2094,0.1975,0.1974,0.1974,0.1974,0,0.1545,0.1583,0.1603,0.1648,0.1679,0.1715,0.1752,0.1799,0.1838,0.1862,0.1937,0.196,0.2006,0.202,0.2019,0.2087,0.2077,0.2058,0.2025,0.2082,0.2097,0.2106,0.198,0.1979,0.1977,0.1977,0,0,0.1533,0.1605,0.1615,0.1645,0.1708,0.1731,0.1796,0.1851,0.1898,0.1952,0.2009,0.2066,0.209,0.2104,0.2117,0.2143,0.2211,0.2132,0.2132,0.2148,0.2278,0.2145,0.2142,0.2209,0.2211,0.2213,0.2269,0,0.1546,0.16,0.1636,0.1698,0.1727,0.1784,0.1835,0.1894,0.1949,0.2012,0.2057,0.2115,0.2117,0.2152,0.2184,0.2209,0.2238,0.2197,0.2224,0.2224,0.2096,0.2149,0.2219,0.2275,0.2278,0.2279,0.228,0,0.1547,0.1586,0.1646,0.1722,0.1742,0.179,0.1883,0.1934,0.2025,0.2067,0.2139,0.2173,0.2248,0.2227,0.2306,0.2284,0.2294,0.2299,0.23,0.2159,0.2107,0.2206,0.2296,0.2295,0.2294,0.2293,0.2292,0,0.1507,0.1589,0.164,0.1667,0.1757,0.181,0.1869,0.196,0.2012,0.2115,0.2164,0.2243,0.2299,0.2331,0.2363,0.2346,0.2426,0.2395,0.2282,0.2272,0.2348,0.2338,0.244,0.244,0.244,0.2439,0.2439,0,0.1485,0.153,0.1634,0.166,0.1728,0.1802,0.1885,0.1952,0.2054,0.2109,0.2198,0.225,0.2331,0.2384,0.2391,0.2369,0.2454,0.2298,0.228,0.2373,0.2366,0.2354,0.2344,0.2442,0.2441,0.2441,0.244,0,0.1427,0.1497,0.156,0.1671,0.1711,0.1764,0.1892,0.1939,0.2052,0.2131,0.2169,0.2286,0.2349,0.2404,0.2458,0.2394,0.2386,0.2354,0.2463,0.2449,0.2206,0.2199,0.2227,0.2223,0.2219,0.2216,0.2214,0,0.1396,0.1426,0.1554,0.1593,0.1653,0.1745,0.1796,0.1922,0.1967,0.2131,0.2148,0.2267,0.2324,0.2289,0.2365,0.2364,0.2335,0.2312,0.2244,0.2206,0.2187,0.2184,0.2181,0.2208,0.2207,0.2206,0.2205,0,0.1335,0.14,0.1451,0.1534,0.1603,0.1661,0.175,0.1775,0.1907,0.203,0.2062,0.2098,0.2165,0.2198,0.2217,0.2214,0.2314,0.2274,0.228,0.2216,0.2184,0.2167,0.2168,0.2193,0.2194,0.2196,0.2196,0,0.1293,0.1314,0.1393,0.1449,0.1526,0.1548,0.1614,0.1659,0.1721,0.1888,0.19,0.2022,0.2137,0.2123,0.2146,0.213,0.2092,0.2006,0.2026,0.204,0.1955,0.1884,0.1792,0,0,0,0,0,0.1237,0.1245,0.1296,0.1344,0.1413,0.1455,0.1558,0.1624,0.1757,0.1721,0.1801,0.1847,0.1886,0.196,0.1906,0.2085,0.2113,0.2014,0.2027,0.2124,0.2139,0.2055,0,0,0,0,0,0,0.1198,0.1243,0.1257,0.1238,0.1249,0.1305,0.1366,0.1461,0.1446,0.159,0.1617,0.1725,0.1791,0.1882,0.1863,0.1886,0.1854,0.2095,0.2091,0.2116,0.2129,0.2141,0.206,0,0,0,0,0]},{"header":{"parameterUnit":"m.s-1","parameterCategory":2,"la1":30.2991,"la2":30.254,"lo1":-89.0895,"lo2":-89.0444,"dy":0.0017,"dx":0.0017,"nx":28,"ny":28,"refTime":"2024-02-16T09:00:00:Z","depth":"4","parameterNumber":3,"parameterNumberName":"V-component_of_CURRENTS"},"data":[0,0,0,0,0,0,0,0,0,0,0,0,0,0,0,0,0,0,0,0,0,0,0,0,0,0,0,0,0,0,0,0,0,0,0,0,0,0,0,0,0,0,0,0,0,0,0,0,0,0,0,0,0,0,0,0,0,0,0.0146,0.0145,0,0.0108,0.0107,0.0107,0.0083,0.0083,0.0083,0.0083,0.0043,0.0042,0.0041,0,0,0,0,0,0,0,0,0,0,0,0,0,0.0172,0.0172,0.0146,0.0145,0.0145,0.0108,0.0107,0.0107,0.0083,0.0083,0.0083,0.0083,0.0043,0.0042,0.0041,0,0,0,0,0,0,0,0,0,0,0,0,0,0.015,0.0172,0.0146,0.0129,0.0127,0.0108,0.0107,0.0106,0.0083,0.0083,0.0083,0.0083,0.0044,0.0042,0.0041,0.0034,0,0,0.0036,0.0035,0,0,0,0,0,0,0,0,0.0151,0.0149,0.0132,0.013,0.0128,0.0101,0.0102,0.0082,0.0083,0.01,0.0083,0.0083,0.0062,0.0059,0.0052,0.0032,0.003,0.0036,0.0035,0.0034,0.0034,0,0,0,0,0,0,0,0.0153,0.015,0.013,0.0132,0.0129,0.0115,0.0111,0.0098,0.0082,0.0098,0.0096,0.0093,0.0061,0.0053,0.0051,0.0029,0.0036,0.0035,0.0034,0.0033,-0.0006,-0.0006,0,0,0,0,0,0,0.016,0.0152,0.0131,0.0129,0.014,0.0114,0.0111,0.0109,0.0082,0.0078,0.0093,0.0092,0.0056,0.0052,0.0049,0.0041,0.0034,0.0033,0.0032,-0.0006,-0.0006,-0.0006,0,0,0,0,0,0,0.016,0.0158,0.0133,0.014,0.0135,0.0114,0.0112,0.0108,0.0102,0.0078,0.0074,0.0091,0.0056,0.0051,0.0041,0.004,0.0032,0.0031,-0.0006,-0.0006,-0.0006,0.0025,0,0,0,0,0,0,0.0161,0.0159,0.0161,0.014,0.0135,0.0126,0.0112,0.0108,0.01,0.0099,0.0075,0.0071,0.0055,0.0044,0.004,0.0037,0.003,-0.0006,-0.0006,-0.0006,0.0024,0.0025,0.0027,0,0,0,0,0,0.0162,0.0167,0.0162,0.0159,0.0139,0.0126,0.0122,0.0106,0.0101,0.01,0.0085,0.0072,0.0039,0.0043,0.0038,0.0035,-0.0005,-0.0006,-0.0006,0.0023,0.0025,0.0027,0,0,0,0,0,0,0.0179,0.0165,0.0158,0.0158,0.0145,0.0122,0.0121,0.0109,0.0097,0.0096,0.0074,0.0069,0.0058,0.0043,0.0048,0.0022,0.0013,0.0012,0.0036,0.0038,0.004,0.0054,0.0028,0,0,0,0,0,0.0184,0.0185,0.0167,0.0167,0.0163,0.0143,0.0136,0.0125,0.011,0.0104,0.0087,0.0068,0.0053,0.0044,0.0028,0.0017,-0.0001,0.001,0.0012,0.0013,0.0021,-0.0009,-0.0009,-0.0007,-0.0007,-0.0007,0,0,0.0191,0.0183,0.0184,0.0171,0.016,0.0158,0.0138,0.0131,0.013,0.0102,0.0097,0.0075,0.0052,0.0039,0.0032,0.0026,0.0002,0.0013,0.0014,0.0022,-0.0009,-0.0009,-0.0009,-0.0007,-0.0007,-0.0007,0,0,0.0205,0.0198,0.0203,0.0196,0.0182,0.0171,0.0171,0.015,0.0143,0.0133,0.0113,0.0093,0.0068,0.005,0.0038,0.0038,0.0013,0.0029,0.0048,0.0019,0.0019,0.0018,-0.0006,-0.0009,0.0028,0.0028,0.0028,0,0.0213,0.0218,0.0202,0.0204,0.0204,0.018,0.0187,0.0175,0.0153,0.015,0.0136,0.0097,0.0074,0.006,0.0056,0.0042,0.0024,0.0044,0.0022,0.0021,0.002,-0.0005,-0.0008,0.003,0.003,0.0029,0.0029,0,0.0229,0.0234,0.0237,0.0235,0.0231,0.0233,0.0217,0.0213,0.0199,0.0182,0.0165,0.0129,0.0107,0.0089,0.0073,0.0055,0.0043,0.0029,0.002,0.0022,-0.0005,-0.0009,0.0032,0.0031,0.0031,0.0031,0,0,0.0248,0.0249,0.0252,0.0262,0.025,0.0252,0.0253,0.0247,0.0254,0.0219,0.022,0.0176,0.0153,0.0138,0.0108,0.0077,0.0048,0.0053,0.0051,0.0035,-0.0013,-0.0015,-0.0019,0.003,0.0029,0.0029,-0.0029,0,0.0268,0.0287,0.0278,0.0301,0.0312,0.0297,0.0306,0.0297,0.0278,0.0272,0.0227,0.0214,0.0173,0.0163,0.0126,0.0073,0.0039,0.0065,-0.0017,-0.0019,-0.0017,-0.0024,0.0027,-0.0033,-0.0034,-0.0034,-0.0035,0,0.0291,0.0302,0.0329,0.0349,0.0353,0.0365,0.0378,0.0379,0.0359,0.0343,0.0311,0.0276,0.0233,0.0196,0.0104,0.0123,0.006,0.0011,0.0007,-0.0005,-0.0028,-0.0036,-0.0043,-0.0042,-0.0041,-0.0041,-0.004,0,0.0325,0.0342,0.037,0.0375,0.0388,0.0406,0.0414,0.0404,0.0418,0.0388,0.0389,0.0325,0.0303,0.0215,0.011,0.0108,0.0005,-0.0012,-0.0074,-0.0075,-0.0069,-0.0068,-0.0081,-0.008,-0.008,-0.008,-0.008,0,0.0354,0.038,0.0394,0.0412,0.0457,0.0449,0.0491,0.0483,0.0484,0.0503,0.0433,0.0431,0.0306,0.0233,0.0129,0.0018,0.0017,-0.0068,-0.009,-0.0056,-0.0053,-0.0073,-0.0071,-0.0082,-0.0082,-0.0081,-0.0081,0,0.0389,0.0396,0.0437,0.0463,0.0478,0.0512,0.0552,0.0578,0.0566,0.0589,0.0585,0.0515,0.0417,0.0284,0.0139,0.0054,-0.0062,-0.0105,-0.0054,-0.0072,-0.0127,-0.0123,-0.0171,-0.0171,-0.0172,-0.0172,-0.0173,0,0.0408,0.0433,0.0482,0.0515,0.0532,0.0579,0.0617,0.0623,0.065,0.0642,0.0659,0.0575,0.051,0.0312,0.0162,-0.0038,-0.0071,-0.0133,-0.0136,-0.012,-0.0136,-0.0131,-0.0127,-0.0173,-0.0173,-0.0173,-0.0174,0,0.0445,0.0468,0.0501,0.0569,0.0618,0.0672,0.0722,0.0749,0.0756,0.0749,0.0722,0.0611,0.05,0.0329,0.0168,0.0024,-0.0093,-0.0138,-0.0138,-0.0142,-0.0123,-0.0138,-0.0133,-0.0175,-0.0175,-0.0175,-0.0175,0,0.0479,0.0512,0.0561,0.062,0.0685,0.0745,0.0765,0.0794,0.0816,0.0798,0.079,0.0654,0.0575,0.0362,0.0217,0.0071,0.0033,-0.0018,-0.0025,-0.0025,0.0028,0.0074,0.0067,0,0,0,0,0,0.0507,0.0547,0.0605,0.0671,0.0735,0.0775,0.083,0.0841,0.0849,0.0839,0.0814,0.0706,0.0491,0.0401,0.0256,0.0202,0.0003,0.0026,-0.006,-0.0184,-0.0182,-0.0146,0,0,0,0,0,0,0.0527,0.0585,0.061,0.0702,0.0754,0.0828,0.0866,0.0868,0.0862,0.0845,0.0736,0.0672,0.0467,0.0578,0.0257,0.0212,0.0136,-0.0075,-0.0079,-0.0185,-0.0183,-0.0182,-0.0144,0,0,0,0,0]}]]